This is the latest recevied weather packets stored in our database for station/object NT9G. If no packets are shown the sender has not sent any weather packets the latest 10 day(s).
| Time | Temp. | Humidity | Pressure | Rain* | Wind** | Luminosity | Snow |
|---|---|---|---|---|---|---|---|
| 1777058993 | 20° C | 61% | 1008.3 hPa | 0.51 mm | - | - | - |
| 1777058693 | 19.44° C | 64% | 1008.3 hPa | 0.51 mm | - | - | - |
| 1777058393 | 19.44° C | 64% | 1008.3 hPa | 0.51 mm | - | - | - |
| 1777058090 | 19.44° C | 63% | 1008.4 hPa | 0.51 mm | - | - | - |
| 1777057790 | 20° C | 61% | 1008.2 hPa | 0.51 mm | - | - | - |
| 1777057490 | 20° C | 62% | 1008.1 hPa | 0.51 mm | - | - | - |
| 1777057188 | 20° C | 62% | 1008.1 hPa | 0.51 mm | - | - | - |
| 1777056887 | 20° C | 61% | 1008.2 hPa | 0.51 mm | - | - | - |
| 1777056587 | 20° C | 61% | 1008.3 hPa | 0.51 mm | - | - | - |
| 1777056287 | 20° C | 63% | 1008.2 hPa | 0.51 mm | - | - | - |
| 1777055986 | 19.44° C | 63% | 1008.2 hPa | 0.51 mm | - | - | - |
| 1777055685 | 20° C | 62% | 1008.2 hPa | 0.51 mm | - | - | - |
| 1777055385 | 20° C | 63% | 1008.2 hPa | 0.51 mm | - | - | - |
| 1777055084 | 20° C | 62% | 1008.2 hPa | 0.51 mm | - | - | - |
| 1777054784 | 19.44° C | 62% | 1008.2 hPa | 0.51 mm | - | - | - |
| 1777054484 | 20° C | 62% | 1008.1 hPa | 0.51 mm | - | - | - |
| 1777054184 | 20° C | 62% | 1008.1 hPa | 0.51 mm | - | - | - |
| 1777053883 | 20.56° C | 63% | 1008.1 hPa | 0.51 mm | - | - | - |
| 1777053583 | 20° C | 62% | 1008.1 hPa | 0.51 mm | - | - | - |
| 1777053283 | 20.56° C | 61% | 1008 hPa | 0.51 mm | - | - | - |
| 1777052983 | 20° C | 65% | 1008 hPa | 0.51 mm | - | - | - |
| 1777052682 | 19.44° C | 70% | 1008 hPa | 0.51 mm | - | - | - |
| 1777052382 | 18.89° C | 68% | 1008 hPa | 0.51 mm | - | - | - |
| 1777052082 | 18.89° C | 69% | 1008 hPa | 0.51 mm | - | - | - |
* Rain since midnight (hover to see other rain measurements)
** Current wind speed in m/s (hover to see current wind gust speed)